TimeEDT,TemperatureF,Dew PointF,Humidity,Sea Level PressureIn,VisibilityMPH,Wind Direction,Wind SpeedMPH,Gust SpeedMPH,PrecipitationIn,Events,Conditions,WindDirDegrees,DateUTC
12:15 AM,39.2,37.4,93,29.83,2.0,East,9.2,17.3,N/A,Rain,Light Rain,90,2014-04-05 04:15:00
12:35 AM,39.2,39.2,100,29.82,3.0,East,9.2,15.0,N/A,Rain,Light Rain,90,2014-04-05 04:35:00
12:55 AM,41.0,39.2,93,29.82,4.0,East,8.1,-,N/A,Rain,Light Rain,90,2014-04-05 04:55:00
1:15 AM,41.0,39.2,93,29.80,4.0,NE,4.6,-,N/A,Rain,Light Rain,40,2014-04-05 05:15:00
1:35 AM,41.0,41.0,100,29.78,3.0,ENE,6.9,-,N/A,Rain,Light Rain,70,2014-04-05 05:35:00
1:55 AM,41.0,41.0,100,29.77,5.0,Variable,6.9,-,N/A,Rain,Light Rain,0,2014-04-05 05:55:00
2:15 AM,42.8,41.0,93,29.75,7.0,NE,8.1,-,N/A,,Overcast,40,2014-04-05 06:15:00
2:35 AM,42.8,42.8,100,29.73,6.0,NE,5.8,-,N/A,,Overcast,40,2014-04-05 06:35:00
2:55 AM,44.6,42.8,93,29.72,7.0,Calm,Calm,-,N/A,,Overcast,0,2014-04-05 06:55:00
3:15 AM,46.4,44.6,93,29.71,8.0,Calm,Calm,-,N/A,,Overcast,0,2014-04-05 07:15:00
3:35 AM,46.4,46.4,100,29.70,4.0,Variable,3.5,-,N/A,Rain,Light Rain,0,2014-04-05 07:35:00
3:55 AM,46.4,44.6,93,29.68,4.0,SSE,4.6,-,N/A,Rain,Rain,150,2014-04-05 07:55:00
4:15 AM,48.2,48.2,100,29.67,5.0,SSE,6.9,-,N/A,,Overcast,150,2014-04-05 08:15:00
4:35 AM,48.2,48.2,100,29.67,5.0,SSW,6.9,-,N/A,,Overcast,200,2014-04-05 08:35:00
4:55 AM,48.2,48.2,100,29.64,3.0,SSE,3.5,-,N/A,,Overcast,160,2014-04-05 08:55:00
5:15 AM,48.2,48.2,100,29.64,2.5,West,4.6,-,N/A,,Overcast,280,2014-04-05 09:15:00
5:35 AM,42.8,42.8,100,29.64,1.2,North,5.8,-,N/A,,Overcast,350,2014-04-05 09:35:00
5:55 AM,42.8,42.8,100,29.66,1.2,NW,3.5,-,N/A,,Overcast,310,2014-04-05 09:55:00
6:15 AM,42.8,42.8,100,29.66,1.0,NW,3.5,-,N/A,,Overcast,310,2014-04-05 10:15:00
6:35 AM,41.0,41.0,100,29.66,1.0,Variable,5.8,11.5,N/A,,Overcast,0,2014-04-05 10:35:00
6:55 AM,41.0,41.0,100,29.66,1.2,NW,5.8,-,N/A,,Overcast,320,2014-04-05 10:55:00
7:15 AM,41.0,41.0,100,29.67,1.0,NW,4.6,-,N/A,,Overcast,310,2014-04-05 11:15:00
7:35 AM,42.8,41.0,93,29.67,1.2,NW,5.8,-,N/A,,Overcast,320,2014-04-05 11:35:00
7:55 AM,42.8,42.8,100,29.68,0.8,WNW,11.5,-,N/A,,Overcast,300,2014-04-05 11:55:00
8:15 AM,42.8,42.8,100,29.69,2.5,NW,9.2,15.0,N/A,,Overcast,310,2014-04-05 12:15:00
8:35 AM,42.8,42.8,100,29.70,8.0,WNW,11.5,17.3,N/A,,Overcast,300,2014-04-05 12:35:00
8:55 AM,44.6,44.6,100,29.70,10.0,WNW,8.1,-,N/A,,Mostly Cloudy,300,2014-04-05 12:55:00
9:15 AM,46.4,44.6,93,29.70,10.0,West,9.2,-,N/A,,Mostly Cloudy,280,2014-04-05 13:15:00
9:35 AM,44.6,44.6,100,29.71,10.0,West,16.1,-,N/A,,Mostly Cloudy,270,2014-04-05 13:35:00
9:55 AM,44.6,44.6,100,29.71,10.0,West,12.7,-,N/A,,Overcast,280,2014-04-05 13:55:00
10:35 AM,46.4,42.8,87,29.72,10.0,WNW,13.8,19.6,N/A,,Overcast,290,2014-04-05 14:35:00
10:55 AM,46.4,42.8,87,29.72,10.0,WNW,10.4,18.4,N/A,,Overcast,290,2014-04-05 14:55:00
11:15 AM,48.2,42.8,82,29.72,10.0,WNW,11.5,-,N/A,,Overcast,290,2014-04-05 15:15:00
11:35 AM,50.0,42.8,76,29.72,10.0,WNW,13.8,-,N/A,,Overcast,290,2014-04-05 15:35:00
11:55 AM,50.0,42.8,76,29.72,10.0,WNW,13.8,19.6,N/A,,Overcast,290,2014-04-05 15:55:00
12:15 PM,51.8,42.8,71,29.72,10.0,West,12.7,18.4,N/A,,Overcast,260,2014-04-05 16:15:00
12:35 PM,51.8,42.8,71,29.72,10.0,West,13.8,21.9,N/A,,Overcast,260,2014-04-05 16:35:00
12:55 PM,50.0,41.0,71,29.72,10.0,WSW,11.5,-,N/A,,Overcast,250,2014-04-05 16:55:00
1:15 PM,50.0,41.0,71,29.73,10.0,WSW,13.8,-,N/A,,Overcast,240,2014-04-05 17:15:00
1:35 PM,48.2,41.0,76,29.73,10.0,SW,11.5,-,N/A,,Overcast,230,2014-04-05 17:35:00
1:55 PM,50.0,41.0,71,29.73,10.0,WSW,11.5,-,N/A,,Overcast,240,2014-04-05 17:55:00
2:15 PM,51.8,41.0,67,29.72,10.0,WSW,11.5,17.3,N/A,,Mostly Cloudy,250,2014-04-05 18:15:00
2:35 PM,53.6,39.2,58,29.72,10.0,WSW,15.0,-,N/A,,Scattered Clouds,250,2014-04-05 18:35:00
2:55 PM,51.8,39.2,62,29.73,10.0,WSW,13.8,-,N/A,,Overcast,250,2014-04-05 18:55:00
3:15 PM,50.0,39.2,66,29.73,10.0,WSW,13.8,-,N/A,,Overcast,240,2014-04-05 19:15:00
3:35 PM,50.0,39.2,66,29.73,10.0,SW,11.5,-,N/A,,Overcast,220,2014-04-05 19:35:00
3:55 PM,50.0,39.2,66,29.74,10.0,SW,10.4,-,N/A,,Overcast,230,2014-04-05 19:55:00
4:15 PM,50.0,39.2,66,29.75,10.0,WSW,9.2,-,N/A,,Overcast,240,2014-04-05 20:15:00
4:35 PM,50.0,39.2,66,29.75,10.0,SW,9.2,16.1,N/A,,Overcast,230,2014-04-05 20:35:00
4:55 PM,50.0,39.2,66,29.76,10.0,WSW,11.5,-,N/A,,Overcast,240,2014-04-05 20:55:00
5:15 PM,48.2,39.2,71,29.76,10.0,WSW,10.4,-,N/A,,Overcast,240,2014-04-05 21:15:00
5:35 PM,50.0,37.4,62,29.76,10.0,WSW,9.2,-,N/A,,Mostly Cloudy,250,2014-04-05 21:35:00
5:55 PM,50.0,33.8,54,29.77,10.0,West,9.2,-,N/A,,Mostly Cloudy,260,2014-04-05 21:55:00
6:15 PM,51.8,33.8,50,29.77,10.0,WNW,10.4,-,N/A,,Scattered Clouds,290,2014-04-05 22:15:00
6:35 PM,50.0,32.0,50,29.78,10.0,NW,8.1,-,N/A,,Partly Cloudy,310,2014-04-05 22:35:00
6:55 PM,50.0,32.0,50,29.78,10.0,WNW,9.2,-,N/A,,Clear,300,2014-04-05 22:55:00
7:15 PM,48.2,32.0,54,29.80,10.0,WNW,8.1,-,N/A,,Clear,290,2014-04-05 23:15:00
7:35 PM,46.4,32.0,57,29.81,10.0,West,9.2,-,N/A,,Scattered Clouds,280,2014-04-05 23:35:00
7:55 PM,44.6,32.0,61,29.82,10.0,WNW,5.8,-,N/A,,Partly Cloudy,300,2014-04-05 23:55:00
8:15 PM,44.6,30.2,57,29.84,10.0,NW,9.2,16.1,N/A,,Clear,310,2014-04-06 00:15:00
8:35 PM,46.4,26.6,46,29.85,10.0,WNW,17.3,23.0,N/A,,Clear,300,2014-04-06 00:35:00
8:55 PM,44.6,26.6,49,29.87,10.0,WNW,12.7,19.6,N/A,,Clear,300,2014-04-06 00:55:00
9:15 PM,44.6,26.6,49,29.88,10.0,WNW,18.4,24.2,N/A,,Clear,300,2014-04-06 01:15:00
9:35 PM,42.8,24.8,49,29.89,10.0,WNW,15.0,23.0,N/A,,Clear,300,2014-04-06 01:35:00
9:55 PM,41.0,23.0,49,29.90,10.0,NW,11.5,21.9,N/A,,Clear,310,2014-04-06 01:55:00
10:15 PM,41.0,23.0,49,29.91,10.0,WNW,10.4,17.3,N/A,,Clear,300,2014-04-06 02:15:00
10:35 PM,39.2,24.8,56,29.92,10.0,NW,5.8,-,N/A,,Clear,310,2014-04-06 02:35:00
10:55 PM,39.2,24.8,56,29.92,10.0,NW,6.9,18.4,N/A,,Clear,310,2014-04-06 02:55:00
11:15 PM,39.2,23.0,52,29.93,10.0,NW,6.9,12.7,N/A,,Clear,310,2014-04-06 03:15:00
11:35 PM,37.4,23.0,56,29.94,10.0,NW,10.4,16.1,N/A,,Clear,310,2014-04-06 03:35:00
11:55 PM,37.4,23.0,56,29.94,10.0,NW,11.5,20.7,N/A,,Clear,310,2014-04-06 03:55:00